Flag for Germany Weather past 2 weeks in Garbsen, Lower Saxony, Germany

Now
39 °F

Partly cloudy.


Feels Like: 30 °F
Forecast: 38 / 46 °F
Wind: 16 mph from West

Location: Hannover

Current Time: Dec 21, 2014 at 12:17:05 AM

Latest Report: Dec 20, 2014 at 11:50 PM


Visibility: N/A

Pressure: 30.12 "Hg

Humidity: 87%

Dew point: 36 °F

Location of GarbsenLocation

Historic Weather in Garbsen — Graph

°F

Garbsen temperature yesterday

Maximum temperature yesterday: 45 °F (at 1:50 PM)
Minimum temperature yesterday: 39 °F (at 2:50 PM)
Average temperature yesterday: 42 °F

Past Weeks' High & Low Weather Summary

 TemperatureHumidityPressure
High54 °F (Dec 18, 2:20 PM)100% (Dec 6, 9:20 AM)30.36 "Hg (Dec 6, 9:20 AM)
Low32 °F (Dec 7, 5:20 AM)66% (Dec 7, 4:20 PM)29.33 "Hg (Dec 12, 12:50 PM)
Average41 °F87%29.88 "Hg
* Reported Dec 5 10:20 PM — Dec 20 10:20 PM, Garbsen, Weather by CustomWeather, © 2014

Note: Actual official high and low records may vary slightly from our data, if they occured in-between our weather recording intervals... More about our weather records

Advertising

Garbsen weather history for previous 24 hours

 ConditionsComfort  
Time TempWeatherWind HumidityBarometerVisibility
10:20 PM
Dec 20
39 °FPassing clouds.15 mph87%30.09 "HgN/A
9:50 PM39 °FPassing clouds.15 mph87%30.07 "HgN/A
9:20 PM39 °FPassing clouds.15 mph87%30.07 "HgN/A
8:50 PM39 °FPassing clouds.15 mph87%30.04 "HgN/A
8:20 PM39 °FPassing clouds.15 mph87%30.04 "HgN/A
7:50 PM39 °FPassing clouds.20 mph87%30.01 "HgN/A
7:20 PM39 °FPassing clouds.21 mph87%29.98 "HgN/A
6:50 PM41 °FSprinkles. Passing clouds.24 mph87%29.95 "HgN/A
6:20 PM41 °FPartly cloudy.18 mph87%29.92 "HgN/A
5:50 PM39 °FPassing clouds.18 mph93%29.92 "HgN/A
5:20 PM39 °FSprinkles. Passing clouds.23 mph93%29.89 "HgN/A
4:50 PM41 °FSprinkles. Partly cloudy.17 mph81%29.89 "HgN/A
4:20 PM41 °FPassing clouds.17 mph81%29.86 "HgN/A
3:50 PM41 °FBroken clouds.17 mph87%29.86 "HgN/A
3:20 PM39 °FBroken clouds.22 mph87%29.86 "HgN/A
2:50 PM39 °FThundershowers. Partly sunny.25 mph87%29.83 "Hg5 mi
2:20 PM45 °FThundershowers. Broken clouds.21 mph81%29.83 "HgN/A
1:50 PM45 °FBroken clouds.18 mph81%29.83 "HgN/A
1:20 PM43 °FLight rain. More clouds than sun.20 mph87%29.83 "HgN/A
12:50 PM43 °FMostly cloudy.20 mph87%29.86 "HgN/A
12:20 PM43 °FSprinkles. Mostly cloudy.23 mph87%29.86 "HgN/A
11:50 AM43 °FBroken clouds.21 mph87%29.86 "HgN/A
11:20 AM43 °FPartly sunny.23 mph81%29.89 "HgN/A
10:50 AM43 °FPartly sunny.22 mph81%29.89 "HgN/A
10:20 AM43 °FSprinkles. Partly sunny.21 mph81%29.89 "HgN/A
9:50 AM43 °FSprinkles. Partly sunny.18 mph81%29.92 "HgN/A
9:20 AM43 °FBroken clouds.22 mph81%29.92 "HgN/A
8:50 AM43 °FPartly sunny.20 mph81%29.92 "HgN/A
8:20 AM43 °FSprinkles. Passing clouds.17 mph81%29.92 "HgN/A
7:50 AM43 °FSprinkles. Passing clouds.17 mph81%29.92 "HgN/A
7:20 AM43 °FSprinkles. Passing clouds.18 mph81%29.95 "HgN/A
6:50 AM43 °FSprinkles. Passing clouds.17 mph81%29.95 "HgN/A
6:20 AM43 °FPassing clouds.17 mph81%29.95 "HgN/A
5:50 AM43 °FPassing clouds.17 mph81%29.95 "HgN/A
5:20 AM43 °FPassing clouds.18 mph81%29.95 "HgN/A
4:50 AM43 °FPassing clouds.17 mph81%29.95 "HgN/A
4:20 AM43 °FPassing clouds.16 mph81%29.95 "HgN/A
3:50 AM43 °FPassing clouds.14 mph81%29.95 "HgN/A
3:20 AM43 °FPassing clouds.18 mph81%29.95 "HgN/A
2:50 AM43 °FPassing clouds.17 mph81%29.95 "HgN/A
2:20 AM43 °FPassing clouds.15 mph81%29.95 "HgN/A
1:50 AM43 °FPassing clouds.20 mph81%29.95 "HgN/A
1:20 AM43 °FPassing clouds.17 mph81%29.95 "HgN/A
12:50 AM43 °FPassing clouds.16 mph81%29.92 "HgN/A
12:20 AM43 °FPassing clouds.15 mph81%29.92 "HgN/A
Weather by CustomWeather, © 2014

See weather overviewHow to use our weather pages